Regional Weather Roundup
Issued by NWS

Home | Current Version | Previous Version | Text Only | Print | Product List | Glossary On
Versions: 1 2 3 4 5 6 7 8 9 10 11 12 13 14 15 16 17 18 19 20 21 22 23 24 25 26 27 28 29 30 31 32 33 34 35 36 37 38 39 40 41 42 43 44 45 46 47 48 49 50
000
ASUS43 KTOP 301708
RWRKS

WEATHER ROUNDUP FOR KANSAS
NATIONAL WEATHER SERVICE GOODLAND KS
1200 PM CDT MON MAR 30 2015

NOTE:  "FAIR" INDICATES FEW OR NO CLOUDS BELOW 12,000 FEET WITH NO
SIGNIFICANT WEATHER AND/OR OBSTRUCTIONS TO VISIBILITY.

KSZ001>006-013>018-027>032-041>047-301800-
NORTHWEST KANSAS

CITY           SKY/WX    TMP DP  RH WIND       PRES   REMARKS
GOODLAND       SUNNY     71  22  15 NW21      30.08F
HAYS           SUNNY     68  36  30 SW24G30   30.10F
HILL CITY      SUNNY     71  29  21 SW24G32   30.06F
RUSSELL        SUNNY     69  35  28 S20G30    30.09F
$$

KSZ061>065-074>080-084>089-301800-
SOUTHWEST KANSAS

CITY           SKY/WX    TMP DP  RH WIND       PRES   REMARKS
DODGE CITY     SUNNY     68  31  25 SW29G35   30.13F
ELKHART          N/A     69  31  24 SW14        N/A
GARDEN CITY    SUNNY     71  30  21 SW24G33   30.10F
GREAT BEND     SUNNY     68  36  30 SW22G29   30.12F
LIBERAL        SUNNY     72  37  28 S22G30    30.16F
PRATT          SUNNY     64  36  34 S20G28    30.17F
$$

KSZ066>073-081>083-090>101-301800-
SOUTHEAST KANSAS

CITY           SKY/WX    TMP DP  RH WIND       PRES   REMARKS
CHANUTE        SUNNY     65  33  30 S13       30.20F
COFFEYVILLE    SUNNY     64  36  35 S13       30.22S
HUTCHINSON     SUNNY     71  35  26 S16       30.16F
MEDICINE LODGE   N/A     64  40  41 S14G21    30.17F
NEWTON         SUNNY     66  30  26 S14       30.19F
PARSONS        SUNNY     65  35  33 S8        30.22S
WICHITA INTL   MOSUNNY   68  34  28 S16       30.18F
WICHITA JABRA  SUNNY     68  30  24 S15       30.17F
WICHITA MCCONL SUNNY     67  34  28 S15       30.18F
WINFIELD       SUNNY     67  37  33 S13       30.21F
$$

KSZ007>012-019>026-033>040-048>060-102>105-301800-
NORTHEAST KANSAS

CITY           SKY/WX    TMP DP  RH WIND       PRES   REMARKS
CONCORDIA      SUNNY     68  30  24 S23       30.10F
EMPORIA        PTSUNNY   65  26  23 S17G24    30.17F HAZE
LAWRENCE       SUNNY     65  31  28 S13       30.16F
MANHATTAN      SUNNY     68  28  22 S17G25    30.13F
MARYSVILLE     SUNNY     64  30  27 SW13G25   30.12S
OLATHE IND     SUNNY     65  30  27 S14       30.17F
OLATHE EXE     SUNNY     63  28  26 S12       30.16F
SALINA         SUNNY     70  31  23 S16G25    30.13F
TOPEKA BILLARD SUNNY     65  31  28 SW13      30.15F
TOPEKA FORBES  SUNNY     67  29  24 S14G23    30.15F
$$



USA.gov is the U.S. government's official web portal to all federal, state and local government web resources and services.